sat.trackr.live / text

‹ back to catalog

STARLINK-31722

NORAD 59549 · 2024-074R

PAYLOAD ACTIVE UNKNOWN

§ Identity

Operator
Country
US
Launch date
2024-04-18
Launch site
AFETR
Launch vehicle
Mass (kg)
RCS (m²)

Purposes: comms

External: N2YO · Heavens-Above · Gunter

§ Orbital elements

Epoch: 2026-05-24T16:45:37.359648Z

Period
94.27 min
Inclination
43.0012°
Eccentricity
0.0000949
Mean motion
15.27567651 rev/d
Perigee alt
482.4 km
Apogee alt
483.7 km
Semi-major
6,861.2 km
B*
1.3318e-4
RAAN
273.8608°
Arg perigee
278.0606°
Mean anomaly
82.0138°
Rev number
11,764

§ Raw data

STARLINK-317221 59549U 24074R   26144.69834907  .00003403  00000+0  13318-3 0  99902 59549  43.0012 273.8608 0000949 278.0606  82.0138 15.27567651117645

JSON: /api/v1/satellites/59549 · /tle

For live sub-satellite position, see the globe view (requires WebGL).

§ Visibility from observer

Set your observer location to see the next 7 days of passes ≥ 10°. The values pass through the URL so the page stays shareable.

No JS? Fill the form by hand. The geolocation button needs JavaScript.